TimeMST,TemperatureF,Dew PointF,Humidity,Sea Level PressureIn,VisibilityMPH,Wind Direction,Wind SpeedMPH,Gust SpeedMPH,PrecipitationIn,Events,Conditions,WindDirDegrees,DateUTC
12:53 AM,26.1,16.0,66,30.05,10.0,South,6.9,-,N/A,,Scattered Clouds,170,2013-02-22 07:53:00
1:53 AM,26.1,18.0,71,30.06,10.0,South,6.9,-,N/A,,Overcast,170,2013-02-22 08:53:00
2:53 AM,27.0,18.0,69,30.07,10.0,SSE,4.6,-,N/A,,Overcast,160,2013-02-22 09:53:00
3:16 AM,26.6,19.4,74,30.03,3.0,SSE,5.8,-,0.00,Snow,Light Snow,160,2013-02-22 10:16:00
3:22 AM,26.6,19.4,74,30.02,1.8,SSE,5.8,-,0.00,Snow,Light Snow,160,2013-02-22 10:22:00
3:41 AM,24.8,21.2,86,30.02,1.2,SSE,6.9,-,0.00,Snow,Light Snow,160,2013-02-22 10:41:00
3:53 AM,25.0,21.9,88,30.07,1.0,SSE,6.9,-,0.00,Snow,Light Snow,160,2013-02-22 10:53:00
4:07 AM,24.8,21.2,86,30.02,0.8,SSE,8.1,-,0.01,Snow,Light Snow,160,2013-02-22 11:07:00
4:16 AM,24.8,21.2,86,30.02,0.8,South,9.2,-,0.01,Snow,Light Snow,170,2013-02-22 11:16:00
4:53 AM,25.0,21.9,88,30.08,1.0,South,8.1,-,0.03,Snow,Light Snow,170,2013-02-22 11:53:00
5:05 AM,24.8,21.2,86,30.02,1.2,South,6.9,-,0.00,Snow,Light Snow,170,2013-02-22 12:05:00
5:14 AM,24.8,21.2,86,30.03,2.0,SSE,8.1,-,0.00,Snow,Light Snow,160,2013-02-22 12:14:00
5:19 AM,24.8,21.2,86,30.03,3.0,SSE,5.8,-,0.00,Snow,Light Snow,160,2013-02-22 12:19:00
5:53 AM,25.0,23.0,92,30.10,2.5,South,5.8,-,0.00,Snow,Light Snow,170,2013-02-22 12:53:00
6:04 AM,24.8,23.0,93,30.04,4.0,South,5.8,-,0.00,Snow,Light Snow,170,2013-02-22 13:04:00
6:53 AM,26.1,23.0,88,30.10,5.0,SSE,6.9,-,0.00,Snow,Light Snow,160,2013-02-22 13:53:00
7:22 AM,26.6,23.0,86,30.04,1.5,South,6.9,-,0.01,Snow,Light Snow,180,2013-02-22 14:22:00
7:29 AM,26.6,23.0,86,30.05,0.5,South,8.1,-,0.01,Fog-Snow,Snow,170,2013-02-22 14:29:00
7:41 AM,24.8,23.0,93,30.06,1.0,South,6.9,-,0.01,Snow,Light Snow,180,2013-02-22 14:41:00
7:50 AM,26.6,23.0,86,30.06,3.0,South,5.8,-,0.01,Snow,Light Snow,180,2013-02-22 14:50:00
7:53 AM,26.1,23.0,88,30.12,4.0,South,6.9,-,0.01,Snow,Light Snow,180,2013-02-22 14:53:00
8:22 AM,26.6,23.0,86,30.07,3.0,South,4.6,-,0.00,Snow,Light Snow,190,2013-02-22 15:22:00
8:37 AM,26.6,23.0,86,30.08,1.2,South,3.5,-,0.01,Snow,Light Snow,190,2013-02-22 15:37:00
8:46 AM,26.6,23.0,86,30.08,3.0,SSW,4.6,-,0.01,Snow,Light Snow,200,2013-02-22 15:46:00
8:53 AM,27.0,23.0,85,30.14,5.0,South,5.8,-,0.01,Snow,Light Snow,190,2013-02-22 15:53:00
9:09 AM,26.6,24.8,93,30.10,4.0,Calm,Calm,-,0.00,Snow,Light Snow,0,2013-02-22 16:09:00
9:30 AM,26.6,24.8,93,30.11,7.0,SSW,4.6,-,0.00,,Overcast,200,2013-02-22 16:30:00
9:37 AM,26.6,24.8,93,30.11,6.0,SSW,4.6,-,0.00,,Overcast,210,2013-02-22 16:37:00
9:53 AM,28.0,24.1,85,30.17,4.0,Calm,Calm,-,0.00,Snow,Light Snow,0,2013-02-22 16:53:00
10:03 AM,28.4,24.8,86,30.11,6.0,SSW,4.6,-,0.00,,Overcast,210,2013-02-22 17:03:00
10:53 AM,28.9,24.1,82,30.18,7.0,SSW,4.6,-,0.00,,Overcast,210,2013-02-22 17:53:00
11:53 AM,30.0,24.1,79,30.18,10.0,SW,6.9,-,N/A,,Overcast,230,2013-02-22 18:53:00
12:19 PM,30.2,23.0,75,30.12,10.0,SSW,4.6,-,N/A,,Overcast,210,2013-02-22 19:19:00
12:49 PM,30.2,21.2,69,30.11,10.0,Calm,Calm,-,N/A,,Overcast,0,2013-02-22 19:49:00
12:53 PM,30.9,21.0,67,30.16,10.0,WSW,3.5,-,N/A,,Overcast,250,2013-02-22 19:53:00
1:23 PM,32.0,21.2,64,30.12,10.0,Variable,5.8,-,N/A,,Mostly Cloudy,0,2013-02-22 20:23:00
1:30 PM,32.0,21.2,64,30.11,10.0,Calm,Calm,-,N/A,,Mostly Cloudy,0,2013-02-22 20:30:00
1:53 PM,30.9,21.0,67,30.15,10.0,West,5.8,-,N/A,,Mostly Cloudy,260,2013-02-22 20:53:00
2:06 PM,32.0,21.2,64,30.09,10.0,SW,6.9,-,N/A,,Mostly Cloudy,220,2013-02-22 21:06:00
2:53 PM,30.9,19.0,61,30.14,10.0,West,4.6,-,N/A,,Mostly Cloudy,270,2013-02-22 21:53:00
3:39 PM,32.0,19.4,60,30.09,10.0,WSW,8.1,-,N/A,,Mostly Cloudy,240,2013-02-22 22:39:00
3:49 PM,32.0,19.4,60,30.09,10.0,WSW,9.2,-,N/A,,Scattered Clouds,240,2013-02-22 22:49:00
3:53 PM,32.0,18.0,56,30.14,10.0,SW,8.1,-,N/A,,Scattered Clouds,230,2013-02-22 22:53:00
4:53 PM,30.9,19.0,61,30.14,10.0,SSW,8.1,-,N/A,,Clear,200,2013-02-22 23:53:00
5:53 PM,30.9,19.0,61,30.13,10.0,South,10.4,-,N/A,,Overcast,180,2013-02-23 00:53:00
6:53 PM,30.9,19.0,61,30.13,10.0,South,8.1,-,N/A,,Overcast,170,2013-02-23 01:53:00
7:53 PM,30.0,19.0,64,30.14,10.0,South,8.1,-,N/A,,Overcast,170,2013-02-23 02:53:00
8:53 PM,30.9,17.1,57,30.11,10.0,SSE,8.1,-,N/A,,Overcast,160,2013-02-23 03:53:00
9:53 PM,30.9,19.0,61,30.09,10.0,South,11.5,-,N/A,,Overcast,170,2013-02-23 04:53:00
10:53 PM,30.9,19.9,64,30.07,10.0,SSE,8.1,-,N/A,,Overcast,160,2013-02-23 05:53:00
11:53 PM,30.9,19.9,64,30.04,10.0,SSE,8.1,-,N/A,,Overcast,150,2013-02-23 06:53:00